Stündliche Wetter Warzenko

Heute, 26 Oktober, Montag

Zeit Temperatur Niederschläge Wind Luftdruck Luftfeuchtigkeit
00:00 +9°C° 0 mm 6 m/S 742 mmHg 88%
01:00 +9°C° 0 mm 5 m/S 742 mmHg 89%
02:00 +9°C° 0 mm 5 m/S 741 mmHg 89%
03:00 +9°C° 0 mm 5 m/S 741 mmHg 90%
04:00 +8°C° 0 mm 5 m/S 741 mmHg 91%
05:00 +8°C° 0 mm 5 m/S 741 mmHg 92%
06:00 +8°C° 0 mm 4 m/S 741 mmHg 94%
07:00 +7°C° 0 mm 4 m/S 741 mmHg 95%
08:00 +8°C° 0 mm 4 m/S 740 mmHg 92%
09:00 +10°C° 0 mm 4 m/S 740 mmHg 89%
10:00 +11°C° 0 mm 4 m/S 740 mmHg 86%
11:00 +11°C° 0 mm 4 m/S 740 mmHg 84%
12:00 +12°C° 0 mm 4 m/S 740 mmHg 83%
13:00 +12°C° 0 mm 4 m/S 740 mmHg 82%
14:00 +12°C° 0 mm 4 m/S 739 mmHg 82%
15:00 +12°C° 0 mm 4 m/S 739 mmHg 82%
16:00 +12°C° 0 mm 4 m/S 739 mmHg 83%
17:00 +12°C° 0 mm 4 m/S 739 mmHg 85%
18:00 +11°C° 0 mm 3 m/S 739 mmHg 86%
19:00 +11°C° 0 mm 3 m/S 739 mmHg 88%
20:00 +11°C° 0 mm 3 m/S 739 mmHg 87%
21:00 +11°C° 0 mm 3 m/S 739 mmHg 87%
22:00 +12°C° 0 mm 4 m/S 740 mmHg 86%
23:00 +11°C° 0.1 mm 3 m/S 740 mmHg 88%

Morgen, 27 Oktober, Dienstag

Zeit Temperatur Niederschläge Wind Luftdruck Luftfeuchtigkeit
00:00 +12°C° 0.1 mm 2 m/S 740 mmHg 91%
01:00 +12°C° 0.1 mm 1 m/S 740 mmHg 93%
02:00 +12°C° 0.1 mm 2 m/S 740 mmHg 93%
03:00 +12°C° 0.1 mm 2 m/S 740 mmHg 94%
04:00 +10°C° 0.1 mm 2 m/S 740 mmHg 95%
05:00 +11°C° 0 mm 1 m/S 741 mmHg 94%
06:00 +11°C° 0 mm 1 m/S 741 mmHg 94%
07:00 +11°C° 0 mm 1 m/S 741 mmHg 94%
08:00 +11°C° 0 mm 1 m/S 741 mmHg 91%
09:00 +12°C° 0 mm 1 m/S 741 mmHg 88%
10:00 +11°C° 0 mm 0 m/S 742 mmHg 85%
11:00 +12°C° 0 mm 1 m/S 742 mmHg 86%
12:00 +12°C° 0 mm 1 m/S 742 mmHg 87%
13:00 +12°C° 0 mm 1 m/S 742 mmHg 88%
14:00 +12°C° 1 mm 1 m/S 742 mmHg 91%
15:00 +11°C° 1 mm 1 m/S 741 mmHg 93%
16:00 +11°C° 1 mm 1 m/S 741 mmHg 96%
17:00 +10°C° 1.5 mm 2 m/S 741 mmHg 95%
18:00 +10°C° 1.5 mm 2 m/S 741 mmHg 94%
19:00 +10°C° 1.5 mm 3 m/S 741 mmHg 93%
20:00 +10°C° 0.5 mm 3 m/S 742 mmHg 92%
21:00 +9°C° 0.5 mm 3 m/S 742 mmHg 91%
22:00 +9°C° 0.5 mm 2 m/S 742 mmHg 90%
23:00 +9°C° 0.1 mm 3 m/S 742 mmHg 89%

übermorgen, 28 Oktober, Mittwoch

Zeit Temperatur Niederschläge Wind Luftdruck Luftfeuchtigkeit
00:00 +9°C° 0.1 mm 3 m/S 743 mmHg 89%
01:00 +9°C° 0.1 mm 3 m/S 743 mmHg 89%
02:00 +8°C° 0 mm 3 m/S 743 mmHg 90%
03:00 +8°C° 0 mm 3 m/S 743 mmHg 91%
04:00 +6°C° 0 mm 4 m/S 743 mmHg 92%
05:00 +6°C° 0 mm 4 m/S 743 mmHg 91%
06:00 +6°C° 0 mm 4 m/S 743 mmHg 91%
07:00 +6°C° 0 mm 4 m/S 744 mmHg 90%
08:00 +7°C° 0 mm 5 m/S 744 mmHg 84%
09:00 +8°C° 0 mm 6 m/S 744 mmHg 77%
10:00 +9°C° 0 mm 6 m/S 744 mmHg 71%
11:00 +10°C° 0 mm 6 m/S 744 mmHg 67%
12:00 +11°C° 0 mm 7 m/S 744 mmHg 64%
13:00 +11°C° 0 mm 7 m/S 744 mmHg 60%
14:00 +11°C° 0 mm 6 m/S 743 mmHg 63%
15:00 +10°C° 0 mm 6 m/S 743 mmHg 66%
16:00 +10°C° 0 mm 5 m/S 743 mmHg 68%
17:00 +9°C° 0 mm 5 m/S 743 mmHg 70%
18:00 +9°C° 0 mm 5 m/S 743 mmHg 72%
19:00 +9°C° 0 mm 5 m/S 743 mmHg 74%
20:00 +9°C° 0 mm 5 m/S 743 mmHg 74%
21:00 +9°C° 0 mm 5 m/S 743 mmHg 73%
22:00 +9°C° 0 mm 5 m/S 743 mmHg 73%
23:00 +8°C° 0 mm 5 m/S 743 mmHg 76%

29 Oktober, Donnerstag

Zeit Temperatur Niederschläge Wind Luftdruck Luftfeuchtigkeit
00:00 +8°C° 0 mm 5 m/S 743 mmHg 79%
01:00 +7°C° 0 mm 5 m/S 743 mmHg 82%
02:00 +7°C° 0 mm 5 m/S 743 mmHg 83%
03:00 +7°C° 0 mm 5 m/S 742 mmHg 83%
04:00 +7°C° 0 mm 5 m/S 742 mmHg 83%
05:00 +7°C° 0 mm 5 m/S 742 mmHg 83%
06:00 +6°C° 0 mm 5 m/S 742 mmHg 84%
07:00 +6°C° 0 mm 5 m/S 742 mmHg 85%
08:00 +7°C° 0.1 mm 5 m/S 742 mmHg 85%
09:00 +7°C° 0.1 mm 5 m/S 743 mmHg 85%
10:00 +8°C° 0.1 mm 6 m/S 743 mmHg 84%
11:00 +8°C° 0.6 mm 6 m/S 743 mmHg 83%
12:00 +9°C° 0.6 mm 6 m/S 743 mmHg 82%
13:00 +9°C° 0.6 mm 6 m/S 743 mmHg 81%
14:00 +9°C° 0.1 mm 5 m/S 743 mmHg 79%
15:00 +9°C° 0.1 mm 5 m/S 744 mmHg 77%
16:00 +10°C° 0.1 mm 4 m/S 744 mmHg 76%
17:00 +8°C° 0 mm 4 m/S 744 mmHg 78%
18:00 +8°C° 0 mm 4 m/S 745 mmHg 80%
19:00 +7°C° 0 mm 5 m/S 745 mmHg 82%
20:00 +7°C° 0 mm 5 m/S 745 mmHg 83%
21:00 +7°C° 0 mm 5 m/S 745 mmHg 83%
22:00 +7°C° 0 mm 5 m/S 746 mmHg 84%
23:00 +7°C° 0 mm 5 m/S 745 mmHg 84%

30 Oktober, Freitag

Zeit Temperatur Niederschläge Wind Luftdruck Luftfeuchtigkeit
00:00 +7°C° 0 mm 5 m/S 745 mmHg 84%
01:00 +7°C° 0 mm 5 m/S 745 mmHg 84%
02:00 +7°C° 0 mm 6 m/S 745 mmHg 83%
03:00 +7°C° 0 mm 6 m/S 745 mmHg 82%
04:00 +6°C° 0 mm 7 m/S 744 mmHg 80%
05:00 +8°C° 0.1 mm 7 m/S 744 mmHg 82%
06:00 +7°C° 0.1 mm 8 m/S 744 mmHg 84%
07:00 +7°C° 0.1 mm 8 m/S 744 mmHg 86%
08:00 +9°C° 0 mm 8 m/S 744 mmHg 86%
09:00 +10°C° 0 mm 8 m/S 744 mmHg 86%
10:00 +10°C° 0 mm 8 m/S 745 mmHg 86%
11:00 +11°C° 0.1 mm 8 m/S 745 mmHg 85%
12:00 +11°C° 0.1 mm 7 m/S 745 mmHg 84%
13:00 +11°C° 0.1 mm 7 m/S 745 mmHg 83%
14:00 +11°C° 0.1 mm 7 m/S 745 mmHg 84%
15:00 +11°C° 0.1 mm 7 m/S 745 mmHg 84%
16:00 +11°C° 0.1 mm 7 m/S 746 mmHg 85%
17:00 +11°C° 0 mm 6 m/S 746 mmHg 84%
18:00 +11°C° 0 mm 6 m/S 746 mmHg 82%
19:00 +11°C° 0 mm 6 m/S 746 mmHg 81%
20:00 +11°C° 0 mm 6 m/S 746 mmHg 81%
21:00 +11°C° 0 mm 6 m/S 746 mmHg 81%
22:00 +11°C° 0 mm 6 m/S 747 mmHg 81%
23:00 +12°C° 0 mm 5 m/S 747 mmHg 82%

31 Oktober, Samstag

Zeit Temperatur Niederschläge Wind Luftdruck Luftfeuchtigkeit
00:00 +10°C° 0 mm 5 m/S 747 mmHg 82%
01:00 +10°C° 0 mm 5 m/S 747 mmHg 83%
02:00 +10°C° 0 mm 5 m/S 747 mmHg 85%
03:00 +10°C° 0 mm 4 m/S 747 mmHg 87%
04:00 +10°C° 0 mm 4 m/S 747 mmHg 89%
05:00 +8°C° 0 mm 4 m/S 747 mmHg 90%
06:00 +8°C° 0 mm 4 m/S 747 mmHg 91%
07:00 +8°C° 0 mm 4 m/S 748 mmHg 92%
Mehr zeigen

Wir brauchen deine Erlaubnis

Meteoprog und unser Service Anbieter werden persönliche Daten aufbewahren, so wie Cookies, Geräte Bezeichnung oder ähnliche Technologien von deinem Gerät und Prozess, so wie Persönliche Daten Inhalte und Werbungen, genauso wie social Media und den Verkehr zu analysieren.

  • Aufbewahrung und/oder Zugang zu deiner Geräte Informationen.

    Cookies, Geräte Bezeichnung oder andere Informationen, können aufbewahrt oder Zugang zu deinem Gerät erhalten, für den Grund, der oben angegeben wird.

  • Personalisierte Werbung und Inhalte, Messungen, Einblick in das Publikum und Produkt Entwicklung.

    Werbungen und Inhalte können personalisiert werden, basierend auf ein Profil. Mehr Daten können besser personalisierte Werbungen und Inhalte hinzufügen. Werbung und Inhalte können gezeigt und gemessen werden. Einblicke über das Publikum, welche die Werbung gesehen haben und den Inhalt, können abgeleitet werden. So wie Daten können genutzt werden, um es zu verbessern oder die Benutzer Erfahrung zu verbessern das System und die Software.

Wenn du “Ich stimme zu” klickst, erlaubst du uns, die Cookies zu benutzen die Geräte Bezeichnung, den Web oder ähnliche Technologien zu benutzen. Deine Settings, können in deinem Gerät bei deinem Browser geändert werden.

Für den bestimmten Zweck, berechtigten Interessen beruhen darauf, mehr als auf den Inhalt. Du kannst mehr darüber in unseren Privaten und Cookie Politik lesen.